This is the latest recevied weather packets stored in our database for station/object W2TAO. If no packets are shown the sender has not sent any weather packets the latest 1 day(s).
| Time | Temp. | Humidity | Pressure | Rain* | Wind** | Luminosity | Snow |
|---|---|---|---|---|---|---|---|
| 1778076114 | 15.56° C | 92% | 1010 hPa | 0.51 mm | - | 42 W/m² | - |
| 1778075507 | 15.56° C | 89% | 1010 hPa | 0.51 mm | - | 41 W/m² | - |
| 1778074900 | 15.56° C | 87% | 1010.2 hPa | 0 mm | - | 29 W/m² | - |
| 1778074294 | 15.56° C | 87% | 1010.2 hPa | 0 mm | - | 43 W/m² | - |
| 1778073688 | 15.56° C | 88% | 1010.3 hPa | 0 mm | - | 41 W/m² | - |
| 1778072779 | 15.56° C | 89% | 1009.8 hPa | 0 mm | - | 49 W/m² | - |
| 1778071872 | 15.56° C | 88% | 1009.8 hPa | 0 mm | - | 81 W/m² | - |
| 1778070663 | 16.11° C | 83% | 1010.1 hPa | 0 mm | - | 34 W/m² | - |
| 1778070359 | 16.11° C | 83% | 1009.9 hPa | 0 mm | - | 14 W/m² | - |
| 1778069149 | 16.11° C | 82% | 1010 hPa | 0 mm | - | 35 W/m² | - |
| 1778068242 | 16.11° C | 82% | 1010 hPa | 0 mm | - | 28 W/m² | - |
| 1778067939 | 16.11° C | 82% | 1010 hPa | 0 mm | - | 24 W/m² | - |
| 1778067335 | 16.11° C | 81% | 1010 hPa | 0 mm | - | 39 W/m² | - |
| 1778067032 | 16.67° C | 81% | 1010 hPa | 0 mm | - | 25 W/m² | - |
| 1778066124 | 16.67° C | 80% | 1009.9 hPa | 0 mm | - | 47 W/m² | - |
| 1778064911 | 16.11° C | 79% | 1009.8 hPa | 0 mm | - | 17 W/m² | - |
| 1778064307 | 16.11° C | 78% | 1009.6 hPa | 0 mm | - | 26 W/m² | - |
| 1778063398 | 16.11° C | 77% | 1009.6 hPa | 0 mm | - | 12 W/m² | - |
| 1778063096 | 16.11° C | 77% | 1009.8 hPa | 0 mm | - | 8 W/m² | - |
| 1778062187 | 16.11° C | 76% | 1009.5 hPa | 0 mm | - | 6 W/m² | - |
| 1778061583 | 16.11° C | 76% | 1009.4 hPa | 0 mm | - | 2 W/m² | - |
| 1778060977 | 16.11° C | 75% | 1009.6 hPa | 0 mm | - | 1 W/m² | - |
| 1778060676 | 16.11° C | 75% | 1009.8 hPa | 0 mm | - | 1 W/m² | - |
| 1778060373 | 16.11° C | 75% | 1009.4 hPa | 0 mm | - | 0 W/m² | - |
| 1778060071 | 16.11° C | 74% | 1009.5 hPa | 0 mm | - | 0 W/m² | - |
* Rain latest hour (hover to see other rain measurements)
** Current wind speed in m/s (hover to see current wind gust speed)